Change the Weather History Date:

Friday, April 18, 2014

  Actual Average Record
Temperature  
Mean Temperature 54 °F -  
Max Temperature 59 °F - - ()
Min Temperature 48 °F - - ()
Degree Days  
Heating Degree Days 11    
Growing Degree Days 4 (Base 50)    
Moisture  
Dew Point 46 °F    
Average Humidity 72    
Maximum Humidity 93    
Minimum Humidity 57    
Precipitation  
Precipitation 0.09 in - - ()
Sea Level Pressure  
Sea Level Pressure 30.24 in    
Wind  
Wind Speed 3 mph (East)    
Max Wind Speed 12 mph    
Max Gust Speed 16 mph    
Visibility 10 miles    
Events Rain    
T = Trace of Precipitation, MM = Missing Value Source: NWS Daily Summary

Daily Weather History Graph

Daily Weather History Graph

Search for Another Location

Airport or City:

Trip Planner

Search our weather history database for the weather conditions in past years. The results will help you decide how hot, cold, wet, or windy it might be!

Date:

Astronomy

Apr. 18, 2014 Rise Set
Actual Time 6:12 AM CDT 7:21 PM CDT
Civil Twilight 5:46 AM CDT 7:47 PM CDT
Nautical Twilight 5:15 AM CDT 8:18 PM CDT
Astronomical Twilight 4:43 AM CDT 8:50 PM CDT
Moon 11:00 PM CDT (4/18) 8:39 AM CDT (4/18)
Length of Visible Light 14h 00m
Length of Day
13h 08m
Waning Gibbous, 87% of the Moon is Illuminated
Apr 18
Waning Gibbous
Apr 22
Last Quarter
Apr 29
New
May 6
First Quarter
May 14
Full

Hourly Weather History & Observations

Time (CDT) Temp. Dew Point Humidity Pressure Visibility Wind Dir Wind Speed Gust Speed Precip Events Conditions
12:15 AM 57.9 °F 45.3 °F 63% 30.29 in 10.0 mi Calm Calm - N/A   Scattered Clouds
12:35 AM 57.9 °F 45.3 °F 63% 30.30 in 10.0 mi SE 3.5 mph - N/A   Overcast
12:55 AM 58.1 °F 45.0 °F 62% 30.30 in 10.0 mi ESE 3.5 mph - N/A   Overcast
1:15 AM 57.9 °F 44.8 °F 62% 30.29 in 10.0 mi Calm Calm - N/A   Overcast
1:35 AM 57.7 °F 44.8 °F 62% 30.28 in 10.0 mi Calm Calm - N/A   Mostly Cloudy
1:55 AM 57.4 °F 44.6 °F 62% 30.27 in 10.0 mi ESE 3.5 mph - N/A   Mostly Cloudy
2:15 AM 57.2 °F 44.6 °F 63% 30.27 in 10.0 mi ESE 3.5 mph - N/A   Scattered Clouds
2:35 AM 56.7 °F 44.2 °F 63% 30.27 in 10.0 mi Calm Calm - N/A   Scattered Clouds
2:55 AM 56.7 °F 44.1 °F 63% 30.27 in 10.0 mi ESE 4.6 mph - N/A   Overcast
3:15 AM 56.5 °F 44.1 °F 63% 30.26 in 10.0 mi ESE 4.6 mph - N/A   Mostly Cloudy
3:35 AM 56.3 °F 43.9 °F 63% 30.26 in 10.0 mi ESE 5.8 mph - N/A   Mostly Cloudy
3:55 AM 56.3 °F 43.9 °F 63% 30.25 in 10.0 mi ESE 4.6 mph - N/A   Mostly Cloudy
4:15 AM 56.1 °F 43.7 °F 63% 30.25 in 10.0 mi ESE 3.5 mph - N/A   Mostly Cloudy
4:35 AM 55.6 °F 43.3 °F 63% 30.25 in 10.0 mi East 4.6 mph - N/A   Scattered Clouds
4:55 AM 55.4 °F 42.6 °F 62% 30.25 in 10.0 mi East 5.8 mph - N/A   Scattered Clouds
5:15 AM 55.4 °F 41.9 °F 60% 30.25 in 10.0 mi East 4.6 mph - N/A   Mostly Cloudy
5:35 AM 55.2 °F 41.4 °F 60% 30.25 in 10.0 mi East 5.8 mph - N/A   Mostly Cloudy
5:55 AM 55.0 °F 40.8 °F 59% 30.25 in 10.0 mi East 4.6 mph - N/A   Mostly Cloudy
6:15 AM 55.2 °F 40.5 °F 58% 30.25 in 10.0 mi East 5.8 mph - N/A   Mostly Cloudy
6:35 AM 55.4 °F 40.3 °F 57% 30.26 in 10.0 mi East 8.1 mph - N/A   Overcast
6:55 AM 55.0 °F 41.0 °F 59% 30.28 in 10.0 mi East 5.8 mph - N/A Rain Rain
7:15 AM 52.5 °F 43.5 °F 71% 30.28 in 7.0 mi East 4.6 mph - 0.02 in Rain Light Rain
7:35 AM 52.9 °F 43.0 °F 69% 30.28 in 10.0 mi East 6.9 mph - 0.02 in   Overcast
7:55 AM 53.2 °F 42.6 °F 67% 30.29 in 10.0 mi East 5.8 mph - 0.02 in Rain Light Rain
8:15 AM 51.8 °F 43.9 °F 74% 30.29 in 7.0 mi East 5.8 mph - 0.01 in Rain Rain
8:35 AM 50.4 °F 44.8 °F 81% 30.29 in 10.0 mi ESE 5.8 mph - 0.02 in Rain Light Rain
8:55 AM 49.8 °F 45.3 °F 84% 30.29 in 10.0 mi ESE 9.2 mph - 0.04 in Rain Light Rain
9:15 AM 49.6 °F 45.5 °F 86% 30.28 in 10.0 mi ESE 9.2 mph 16.1 mph 0.01 in Rain Light Rain
9:35 AM 49.6 °F 46.0 °F 87% 30.30 in 10.0 mi NNE 3.5 mph - 0.01 in Rain Light Rain
9:55 AM 50.0 °F 46.8 °F 89% 30.30 in 10.0 mi ENE 4.6 mph - 0.02 in Rain Light Rain
10:15 AM 50.7 °F 47.1 °F 87% 30.30 in 10.0 mi East 3.5 mph - N/A   Scattered Clouds
10:35 AM 51.3 °F 46.6 °F 84% 30.29 in 10.0 mi East 4.6 mph - N/A Rain Light Rain
11:15 AM 52.0 °F 46.9 °F 83% 30.28 in 10.0 mi East 3.5 mph - 0.01 in Rain Light Rain
11:35 AM 52.9 °F 47.3 °F 81% 30.28 in 10.0 mi East 4.6 mph - 0.01 in   Light Drizzle
11:55 AM 53.8 °F 47.1 °F 78% 30.27 in 10.0 mi East 5.8 mph - 0.01 in   Clear
12:15 PM 54.9 °F 46.6 °F 74% 30.26 in 10.0 mi ESE 4.6 mph - N/A   Clear
12:35 PM 55.6 °F 46.2 °F 71% 30.26 in 10.0 mi ENE 8.1 mph - N/A   Clear
12:55 PM 56.5 °F 45.9 °F 68% 30.25 in 10.0 mi ENE 6.9 mph - N/A   Clear
1:15 PM 57.4 °F 46.2 °F 66% 30.25 in 10.0 mi NE 5.8 mph - N/A   Clear
1:35 PM 57.9 °F 45.5 °F 63% 30.25 in 10.0 mi NE 6.9 mph - N/A   Clear
1:55 PM 58.3 °F 45.7 °F 63% 30.24 in 10.0 mi NE 8.1 mph - N/A   Clear
2:15 PM 58.5 °F 45.5 °F 62% 30.23 in 10.0 mi NE 6.9 mph - N/A   Clear
2:35 PM 59.0 °F 45.3 °F 60% 30.22 in 10.0 mi NE 8.1 mph - N/A   Clear
2:55 PM 59.4 °F 45.5 °F 60% 30.20 in 10.0 mi NE 11.5 mph - N/A   Clear
3:15 PM 59.4 °F 45.3 °F 60% 30.19 in 10.0 mi NNE 8.1 mph - N/A   Clear
3:35 PM 59.5 °F 45.5 °F 60% 30.19 in 10.0 mi NE 10.4 mph - N/A   Clear
3:55 PM 59.7 °F 45.5 °F 59% 30.19 in 10.0 mi NNE 8.1 mph - N/A   Clear
4:15 PM 59.7 °F 45.7 °F 60% 30.19 in 10.0 mi NE 3.5 mph - N/A   Clear
4:35 PM 59.7 °F 45.9 °F 60% 30.19 in 10.0 mi Calm Calm - N/A   Clear
4:55 PM 59.5 °F 46.0 °F 61% 30.19 in 10.0 mi Calm Calm - N/A   Clear
5:15 PM 59.9 °F 46.6 °F 61% 30.19 in 10.0 mi Calm Calm - N/A   Clear
5:35 PM 59.4 °F 46.8 °F 63% 30.19 in 10.0 mi Calm Calm - N/A   Scattered Clouds
5:55 PM 59.0 °F 47.1 °F 65% 30.19 in 10.0 mi Calm Calm - N/A   Mostly Cloudy
6:15 PM 58.3 °F 48.9 °F 71% 30.19 in 10.0 mi Calm Calm - N/A   Overcast
6:35 PM 57.6 °F 50.2 °F 76% 30.19 in 10.0 mi Calm Calm - N/A   Overcast
6:55 PM 57.4 °F 49.8 °F 76% 30.19 in 10.0 mi Calm Calm - N/A   Overcast
7:15 PM 56.8 °F 50.4 °F 79% 30.19 in 10.0 mi Calm Calm - N/A   Overcast
7:35 PM 56.1 °F 51.4 °F 84% 30.18 in 10.0 mi Calm Calm - N/A   Overcast
7:55 PM 54.9 °F 51.1 °F 87% 30.18 in 10.0 mi Calm Calm - N/A   Mostly Cloudy
8:15 PM 54.0 °F 50.4 °F 88% 30.18 in 10.0 mi Calm Calm - N/A   Scattered Clouds
8:35 PM 53.1 °F 49.8 °F 89% 30.18 in 7.0 mi Calm Calm - N/A   Clear
8:55 PM 52.5 °F 49.3 °F 89% 30.18 in 10.0 mi Calm Calm - N/A   Clear
9:15 PM 52.2 °F 49.1 °F 89% 30.19 in 10.0 mi Calm Calm - N/A   Clear
9:35 PM 51.3 °F 47.7 °F 87% 30.19 in 10.0 mi Calm Calm - N/A   Clear
9:55 PM 51.1 °F 47.5 °F 87% 30.18 in 10.0 mi Calm Calm - N/A   Clear
10:15 PM 50.7 °F 47.8 °F 90% 30.19 in 10.0 mi Calm Calm - N/A   Clear
10:35 PM 50.2 °F 47.8 °F 92% 30.18 in 10.0 mi Calm Calm - N/A   Clear
10:55 PM 50.4 °F 48.0 °F 92% 30.19 in 10.0 mi Calm Calm - N/A   Clear
11:15 PM 50.0 °F 47.5 °F 91% 30.18 in 10.0 mi Calm Calm - N/A   Clear
11:35 PM 49.1 °F 47.1 °F 93% 30.18 in 10.0 mi Calm Calm - N/A   Clear
11:55 PM 48.6 °F 46.8 °F 93% 30.17 in 10.0 mi Calm Calm - N/A   Clear